Showing default

UMBRA-09, 60541

Orbit data source: Space-Track

UMBRA-09, 60541 is a payload satellite owned by Umbra Labs (US) in SSO that was launched on Fri, 16 Aug 2024 UTC via an FALCON 9 launch vehicle from the Air Force Western Test Range (AFWTR). Payload-class satellites include a variety of spacecraft equipped with specific instruments for various scientific and technological missions. These include communications satellites like Starlink; space stations such as the ISS; scientific satellites like the Hubble; Earth observation satellites from companies like Planet Labs, Umbra, and HawkEye 360; GPS; miniature CubeSats for education and research; and military/defense satellites.

Loading next visibility...
Identifier
60541, 2024-149CB
Orbit
SSO
Country
Flag of USUS
Related business
Manufacturer
Umbra Labs
Mission
Operational Commercial Radar Imaging
Bus & Motor
ESPASAT?, Unknown motor
Mass
84 kg wet, 79 kg dry
Launch date (UTC)
2024-08-16 (2 years ago)
Launch vehicle
FALCON 9
Launch site
Air Force Western Test Range (AFWTR)
Object type
Payload
Rocket body
Debris
Shape & HBR
Box + 2 Pan + 1 Dish, 2.0 m
Radar Cross Section
6.513 m², Large (>1 m²)

Expand to show TLE details & history
Last TLE update: 16 hours ago

TLE from 16 hours ago
0 UMBRA-09
1 60541U 24149CB  26111.80813250  .00012652  00000-0  65600-3 0  9990
2 60541  97.6955 198.1310 0001969 169.3675 190.7599 15.16304377 92170
Epoch: 2026-04-21T19:23Z
TLE epoch observation values (Epoch: 2026-04-21T19:23:42.648Z)
Latitude
-0.00008°
Longitude
57.32471°
Altitude
521.432 km
Speed
7.602 km/s
True Right ascension
13h 12m 31s
True Declination
0° 00' 00"
Sunlit
Object was in full shadow at epoch
Visualization orbit readout
Latitude
Unknown
Longitude
Unknown
Altitude
Unknown
Speed
Unknown
Apparent Right ascension
Unknown
Apparent Declination
Unknown
Sunlit
N/A
Visualization observer readout
Local Sidereal Time
18:13:18
Azimuth
Unknown
Elevation
Unknown
Doppler factor
Unknown
Orbital elements
Apogee altitude
515.362 km
Perigee altitude
512.648 km
Semi-major axis
6,892.142 km
Eccentricity
0.0002
Inclination
97.6955°
RAAN
198.131°
Arg. of periapsis
169.3675°
True anomaly
190.75569°
Mean anomaly
190.7599°
Eccentric anomaly
190.75779°
Mean motion
3.79325 °/min
Orbital period
94.91 mins
BSTAR
0.000656
Loading maneuver chart data...
Computing Atmospheric mass density...
Loading historical data...
Loading historical data...
Loading historical data...
Loading historical data...
Loading historical data...
Loading historical data...
Loading historical data...

Documentation

Showing up to 5 results
|